Location: Waco, TX
(31.5480°N, 97.1670°W)
Time: 22:55:48
(UTC-05:00)

ISS - Pass Details

Date: 25 April 2018
Orbit: 403 x 406 km, 51.6° (Epoch: 23 April)

Event Time Altitude Azimuth Distance (km) Brightness Sun altitude
Rises 14:31:14 0° 333° (NNW) 2,322 -0.1 66.5°
Reaches altitude 10° 14:34:11 10° 2° (N) 1,460 -1.1 66.1°
Maximum altitude 14:35:51 13° 33° (NNE) 1,278 -1.4 65.9°
Drops below altitude 10° 14:37:32 10° 64° (ENE) 1,458 -1.1 65.6°
Sets 14:40:28 0° 93° (E) 2,316 -0.2 65.2°
